EW3334 Weather Reports


Display with metric or nautical units.
time (UTC)temp
F
wind
direction
speed
MPH
gust
MPH
rain 1hr
in
rain 24hr
in
rain mn
in
humidity
%
barometer
mb
20240416112051 36 215 0.0 2.0 0.00 0.00 0.00 94 1017.3
20240416111551 36 215 0.0 2.0 0.00 0.00 0.00 94 1017.2
20240416111049 36 215 0.0 2.0 0.00 0.00 0.00 94 1017.2
20240416110548 36 215 0.0 2.0 0.00 0.00 0.00 94 1017.1
20240416110052 35 215 0.0 2.0 0.00 0.00 0.00 94 1017.1
20240416105550 35 215 0.0 2.0 0.00 0.00 0.00 94 1017.0
20240416105046 35 215 0.0 1.0 0.00 0.00 0.00 94 1017.0
20240416104556 35 215 0.0 1.0 0.00 0.00 0.00 93 1016.8
20240416104044 35 215 0.0 2.0 0.00 0.00 0.00 93 1016.7
20240416103543 35 215 0.0 2.0 0.00 0.00 0.00 93 1016.6
20240416103047 35 215 1.0 3.0 0.00 0.00 0.00 93 1016.6
20240416102541 35 215 1.0 3.0 0.00 0.00 0.00 93 1016.5
20240416102040 35 215 1.0 2.0 0.00 0.00 0.00 93 1016.4
20240416101540 35 215 0.0 2.0 0.00 0.00 0.00 93 1016.4
20240416101046 35 209 0.0 2.0 0.00 0.00 0.00 93 1016.3
20240416100539 35 173 1.0 2.0 0.00 0.00 0.00 93 1016.2
20240416100039 35 153 0.0 2.0 0.00 0.00 0.00 93 1016.2
20240416095539 35 153 0.0 2.0 0.00 0.00 0.00 93 1016.1
20240416095037 35 143 0.0 2.0 0.00 0.00 0.00 93 1016.1
20240416094537 35 122 0.0 2.0 0.00 0.00 0.00 93 1016.0
20240416094036 35 144 0.0 2.0 0.00 0.00 0.00 92 1015.9
20240416093534 35 319 0.0 1.0 0.00 0.00 0.00 92 1015.8
20240416093135 35 320 0.0 1.0 0.00 0.00 0.00 92 1015.8
20240416092532 35 320 0.0 0.0 0.00 0.00 0.00 92 1015.6
20240416092031 35 320 0.0 0.0 0.00 0.00 0.00 92 1015.6
20240416091531 35 319 0.0 2.0 0.00 0.00 0.00 92 1015.5
20240416091030 35 320 0.0 2.0 0.00 0.00 0.00 92 1015.5
20240416090530 36 319 0.0 2.0 0.00 0.00 0.00 92 1015.5
20240416090048 36 320 0.0 2.0 0.00 0.00 0.00 92 1015.5
20240416085530 36 320 0.0 2.0 0.00 0.00 0.00 92 1015.4
20240416085028 36 319 0.0 1.0 0.00 0.00 0.00 92 1015.4
20240416084528 36 320 0.0 3.0 0.00 0.00 0.00 92 1015.3
20240416084027 36 320 1.0 3.0 0.00 0.00 0.00 92 1015.3
20240416083527 36 320 2.0 3.0 0.00 0.00 0.00 92 1015.3
20240416083043 36 320 2.0 3.0 0.00 0.00 0.00 92 1015.2
20240416082524 36 319 1.0 2.0 0.00 0.00 0.00 91 1015.2
20240416082022 36 320 0.0 0.0 0.00 0.00 0.00 91 1015.1
20240416081522 36 319 0.0 1.0 0.00 0.00 0.00 91 1015.0
20240416081021 36 320 0.0 1.0 0.00 0.00 0.00 91 1014.9
20240416080520 36 320 0.0 0.0 0.00 0.00 0.00 91 1014.9
20240416080020 36 320 0.0 0.0 0.00 0.00 0.00 91 1014.9
20240416075519 37 320 0.0 0.0 0.00 0.00 0.00 91 1014.9
20240416075018 37 320 0.0 0.0 0.00 0.00 0.00 91 1014.8
20240416074521 37 320 0.0 1.0 0.00 0.00 0.00 91 1014.8
20240416074017 37 320 0.0 1.0 0.00 0.00 0.00 91 1014.9
20240416073517 37 320 0.0 1.0 0.00 0.00 0.00 91 1014.7
20240416073020 37 320 0.0 1.0 0.00 0.00 0.00 91 1014.8
20240416072517 37 320 0.0 1.0 0.00 0.00 0.00 91 1014.8
20240416072015 37 320 0.0 2.0 0.00 0.00 0.00 91 1014.8
20240416071514 37 319 0.0 1.0 0.00 0.00 0.00 90 1014.8
20240416071013 37 320 0.0 1.0 0.00 0.00 0.00 90 1014.8
20240416070517 37 320 0.0 0.0 0.00 0.00 0.00 90 1014.8
20240416070013 37 320 0.0 0.0 0.00 0.00 0.00 90 1014.8
20240416065512 37 320 0.0 0.0 0.00 0.00 0.00 90 1014.8
20240416065010 38 320 0.0 0.0 0.00 0.00 0.00 90 1014.8
20240416064510 38 320 0.0 0.0 0.00 0.00 0.00 89 1014.8
20240416064010 38 320 0.0 0.0 0.00 0.00 0.00 89 1014.8
20240416063512 38 320 0.0 0.0 0.00 0.00 0.00 89 1014.9
20240416063013 38 320 0.0 0.0 0.00 0.00 0.00 89 1014.8
20240416062508 38 320 0.0 0.0 0.00 0.00 0.00 89 1014.8
20240416062007 38 320 0.0 0.0 0.00 0.00 0.00 89 1014.8
20240416061507 38 320 0.0 1.0 0.00 0.00 0.00 89 1014.7
20240416061005 39 320 0.0 1.0 0.00 0.00 0.00 88 1014.8
20240416060505 39 320 0.0 1.0 0.00 0.00 0.00 88 1014.7
20240416060005 39 320 0.0 1.0 0.00 0.00 0.00 88 1014.9
20240416055503 39 320 0.0 0.0 0.00 0.00 0.00 87 1014.8
20240416055001 39 320 0.0 0.0 0.00 0.00 0.00 87 1014.8
20240416054501 39 320 0.0 0.0 0.00 0.00 0.00 88 1014.7
20240416054101 39 320 0.0 0.0 0.00 0.00 0.00 88 1014.8
20240416053559 40 320 0.0 0.0 0.00 0.00 0.00 87 1014.8
20240416053116 40 320 0.0 0.0 0.00 0.00 0.00 87 1014.7
20240416052558 40 319 0.0 0.0 0.00 0.00 0.00 87 1014.8
20240416052058 40 320 0.0 1.0 0.00 0.00 0.00 87 1014.7
20240416051605 40 320 0.0 1.0 0.00 0.00 0.00 87 1014.7
20240416051057 40 320 0.0 1.0 0.00 0.00 0.00 87 1014.7
20240416050555 41 320 0.0 1.0 0.00 0.00 0.00 86 1014.8
20240416050112 41 320 0.0 1.0 0.00 0.00 0.00 86 1014.8
20240416045555 41 320 0.0 0.0 0.00 0.00 0.00 86 1014.8
20240416045053 41 319 0.0 0.0 0.00 0.00 0.00 86 1014.8
20240416044554 41 320 0.0 1.0 0.00 0.00 0.00 86 1014.7
20240416044052 41 320 0.0 1.0 0.00 0.00 0.00 86 1014.7
20240416043553 41 319 0.0 2.0 0.00 0.00 0.00 85 1014.6
20240416043050 42 320 0.0 2.0 0.00 0.00 0.00 85 1014.5
20240416042548 42 320 0.0 1.0 0.00 0.00 0.00 84 1014.5
20240416042047 42 320 0.0 1.0 0.00 0.00 0.00 83 1014.6
20240416041552 43 320 0.0 1.0 0.00 0.00 0.00 83 1014.5
20240416041044 43 319 0.0 0.0 0.00 0.00 0.00 83 1014.5
20240416040544 43 320 0.0 0.0 0.00 0.00 0.00 82 1014.4
20240416040051 43 320 0.0 0.0 0.00 0.00 0.00 83 1014.3
20240416035542 43 320 0.0 0.0 0.00 0.00 0.00 82 1014.3
20240416035042 44 320 0.0 1.0 0.00 0.00 0.00 83 1014.2
20240416034554 44 320 0.0 2.0 0.00 0.00 0.00 82 1014.2
20240416034041 44 319 0.0 2.0 0.00 0.00 0.00 83 1014.2
20240416033541 44 320 0.0 2.0 0.00 0.00 0.00 83 1014.2
20240416033041 44 320 0.0 2.0 0.00 0.00 0.00 84 1014.1
20240416032541 44 320 0.0 4.0 0.00 0.00 0.00 84 1014.1
20240416032039 44 320 1.0 4.0 0.00 0.00 0.00 84 1014.0
20240416031540 44 281 1.0 6.0 0.00 0.00 0.00 84 1013.8
20240416031038 44 271 2.0 6.0 0.00 0.00 0.00 84 1013.7
20240416030539 44 325 2.0 4.0 0.00 0.00 0.00 84 1013.6
20240416030040 44 277 1.0 4.0 0.00 0.00 0.00 84 1013.5
20240416025538 44 296 1.0 4.0 0.00 0.00 0.00 83 1013.5
20240416025038 44 317 1.0 4.0 0.00 0.00 0.00 83 1013.6
20240416024537 44 300 0.0 3.0 0.00 0.00 0.00 82 1013.6
20240416024038 44 265 0.0 3.0 0.00 0.00 0.00 82 1013.7
20240416023537 44 302 0.0 3.0 0.00 0.00 0.00 82 1013.7
20240416023046 44 302 0.0 2.0 0.00 0.00 0.00 81 1013.7
20240416022536 45 302 0.0 1.0 0.00 0.00 0.00 81 1013.8
20240416022040 45 302 0.0 1.0 0.00 0.00 0.00 81 1013.8
20240416021536 45 302 0.0 2.0 0.00 0.00 0.00 81 1013.9
20240416021036 45 302 0.0 2.0 0.00 0.00 0.00 80 1013.8
20240416020536 45 302 0.0 2.0 0.00 0.00 0.00 80 1013.9
20240416020037 46 302 0.0 1.0 0.00 0.00 0.00 80 1013.8
20240416015535 46 302 0.0 2.0 0.00 0.00 0.00 79 1013.9
20240416015035 46 302 0.0 2.0 0.00 0.00 0.00 79 1013.7
20240416014534 46 302 0.0 2.0 0.00 0.00 0.00 78 1013.8
20240416014034 46 302 0.0 2.0 0.00 0.00 0.00 78 1013.7
20240416013534 47 302 0.0 2.0 0.00 0.00 0.00 77 1013.7
20240416013035 47 302 0.0 2.0 0.00 0.00 0.00 77 1013.7
20240416012533 47 263 0.0 3.0 0.00 0.00 0.00 76 1013.7
20240416012033 47 294 1.0 3.0 0.00 0.00 0.00 76 1013.8
20240416011532 48 273 0.0 2.0 0.00 0.00 0.00 75 1013.7
20240416011031 48 272 0.0 2.0 0.00 0.00 0.00 75 1013.6
20240416010531 48 273 0.0 2.0 0.00 0.00 0.00 74 1013.5
20240416010035 48 272 0.0 2.0 0.00 0.00 0.00 74 1013.5
20240416005530 49 272 0.0 1.0 0.00 0.00 0.00 73 1013.4
20240416005030 49 272 0.0 2.0 0.00 0.00 0.00 73 1013.3
20240416004536 49 272 0.0 2.0 0.00 0.00 0.00 72 1013.3
20240416004028 50 272 0.0 1.0 0.00 0.00 0.00 72 1013.2
20240416003532 50 272 0.0 1.0 0.00 0.00 0.00 71 1013.2
20240416003036 50 272 0.0 2.0 0.00 0.00 0.00 70 1013.1
20240416002526 51 272 0.0 2.0 0.00 0.00 0.00 69 1012.9
20240416002025 51 272 0.0 1.0 0.00 0.00 0.00 68 1012.9
20240416001525 51 272 0.0 1.0 0.00 0.00 0.00 68 1012.8
20240416001025 52 272 0.0 0.0 0.00 0.00 0.00 68 1012.7
20240416000525 52 273 0.0 1.0 0.00 0.00 0.00 68 1012.7
20240416000023 52 272 0.0 3.0 0.00 0.00 0.00 67 1012.6
20240415235524 53 272 0.0 3.0 0.00 0.02 0.00 66 1012.4
20240415235021 53 254 0.0 4.0 0.00 0.02 0.00 66 1012.4
20240415234521 53 254 1.0 6.0 0.00 0.02 0.00 65 1012.3
20240415234021 53 281 2.0 7.0 0.00 0.02 0.00 65 1012.3
20240415233520 53 277 3.0 7.0 0.00 0.02 0.00 64 1012.2
20240415233022 54 262 2.0 5.0 0.00 0.02 0.00 64 1012.1
20240415232519 54 346 2.0 10.0 0.00 0.02 0.00 64 1012.0
20240415232018 54 302 2.0 11.0 0.00 0.02 0.00 64 1011.9
20240415231521 54 294 3.0 11.0 0.00 0.02 0.00 63 1011.8
20240415231017 55 292 5.0 13.0 0.00 0.02 0.00 62 1011.9
20240415230516 55 278 6.0 13.0 0.00 0.02 0.00 62 1011.7
20240415230020 55 316 4.0 14.0 0.00 0.02 0.00 61 1011.6
20240415225514 55 284 7.0 14.0 0.00 0.03 0.00 60 1011.5
20240415225019 55 350 6.0 11.0 0.00 0.03 0.00 59 1011.4
20240415224514 56 326 4.0 8.0 0.00 0.03 0.00 59 1011.3
20240415224012 56 322 2.0 13.0 0.00 0.03 0.00 59 1011.2
20240415223511 56 288 6.0 13.0 0.00 0.03 0.00 59 1011.1
20240415223011 56 295 7.0 13.0 0.00 0.03 0.00 58 1011.0
20240415222510 56 304 3.0 19.0 0.00 0.03 0.00 58 1011.0
20240415222010 57 62 7.0 19.0 0.00 0.03 0.00 57 1010.9
20240415221510 57 309 5.0 17.0 0.00 0.03 0.00 56 1010.8
20240415221009 57 294 8.0 17.0 0.00 0.03 0.00 56 1010.8
20240415220510 57 274 6.0 13.0 0.00 0.03 0.00 56 1010.7
20240415220008 57 309 2.0 13.0 0.00 0.03 0.00 57 1010.6
20240415215507 58 318 4.0 11.0 0.00 0.04 0.00 55 1010.5
20240415215006 58 281 4.0 14.0 0.00 0.04 0.00 53 1010.4
20240415214510 58 302 6.0 17.0 0.00 0.04 0.00 52 1010.3
20240415214005 59 219 9.0 17.0 0.00 0.04 0.00 51 1010.4
20240415213604 59 312 6.0 16.0 0.00 0.04 0.00 51 1010.2
20240415213003 59 323 7.0 16.0 0.00 0.04 0.00 52 1010.1
20240415212502 59 306 6.0 15.0 0.00 0.04 0.00 52 1010.0
20240415212002 59 325 5.0 17.0 0.00 0.04 0.00 52 1010.0
20240415211501 60 309 6.0 17.0 0.00 0.04 0.00 52 1009.8
20240415211001 60 319 5.0 17.0 0.00 0.04 0.00 52 1009.9
20240415210600 60 261 8.0 17.0 0.00 0.04 0.00 52 1009.7
20240415210102 60 302 5.0 14.0 0.00 0.04 0.00 51 1009.7
20240415205559 60 317 5.0 18.0 0.00 0.04 0.00 52 1009.8
20240415205058 61 347 5.0 22.0 0.00 0.04 0.00 53 1009.5
20240415204605 61 275 10.0 22.0 0.00 0.04 0.00 53 1009.4
20240415204057 62 271 4.0 17.0 0.00 0.04 0.00 52 1009.2
20240415203555 62 311 5.0 13.0 0.00 0.04 0.00 50 1009.0
20240415203101 62 308 5.0 13.0 0.00 0.04 0.00 49 1008.9
20240415202553 62 299 2.0 9.0 0.00 0.04 0.00 49 1008.9
20240415202053 63 242 3.0 17.0 0.00 0.04 0.00 48 1008.8
20240415201555 63 248 7.0 13.0 0.00 0.04 0.00 46 1008.6
20240415201050 64 307 6.0 13.0 0.00 0.04 0.00 47 1008.6
20240415200550 64 263 4.0 17.0 0.00 0.04 0.00 48 1008.5
20240415200050 64 167 6.0 17.0 0.00 0.04 0.00 46 1008.5
20240415195549 66 215 3.0 17.0 0.00 0.04 0.00 44 1008.3
20240415195049 67 270 10.0 16.0 0.00 0.04 0.00 40 1008.2
20240415194550 67 340 5.0 13.0 0.00 0.04 0.00 35 1007.8
20240415194048 66 196 3.0 10.0 0.00 0.04 0.00 36 1007.8
20240415193547 66 46 3.0 18.0 0.00 0.04 0.00 34 1007.6
20240415193053 66 206 6.0 18.0 0.00 0.04 0.00 33 1007.6
20240415192545 66 223 8.0 17.0 0.00 0.04 0.00 30 1007.7
20240415192045 67 202 4.0 19.0 0.00 0.04 0.00 33 1007.6
20240415191545 67 281 7.0 19.0 0.00 0.04 0.00 33 1007.5
20240415191044 67 308 5.0 21.0 0.00 0.04 0.00 34 1007.4
20240415190544 67 285 4.0 13.0 0.00 0.04 0.00 36 1007.3
20240415190043 67 258 6.0 14.0 0.00 0.04 0.00 34 1007.1
20240415185546 67 218 7.0 16.0 0.00 0.04 0.00 34 1007.2
20240415185042 67 269 7.0 24.0 0.00 0.04 0.00 35 1007.2
20240415184545 67 277 7.0 15.0 0.00 0.04 0.00 36 1007.1
20240415184040 67 287 4.0 17.0 0.00 0.04 0.00 36 1007.1
20240415183540 67 102 5.0 18.0 0.00 0.04 0.00 37 1007.0
20240415183039 67 198 7.0 18.0 0.00 0.04 0.00 38 1007.1
20240415182538 67 263 6.0 16.0 0.00 0.04 0.00 44 1007.1
20240415182041 66 181 3.0 10.0 0.00 0.04 0.00 43 1007.1
20240415181536 66 349 5.0 14.0 0.00 0.04 0.00 42 1007.2
20240415181036 66 275 4.0 20.0 0.00 0.04 0.00 42 1007.1
20240415180535 66 275 5.0 20.0 0.00 0.04 0.00 41 1007.2
20240415180039 66 220 8.0 16.0 0.00 0.04 0.00 40 1007.1
20240415175534 66 360 7.0 15.0 0.00 0.04 0.00 41 1007.0
20240415175032 66 231 4.0 15.0 0.00 0.04 0.00 42 1007.1
20240415174532 66 242 4.0 14.0 0.00 0.04 0.00 41 1007.2
20240415174032 66 171 4.0 17.0 0.00 0.04 0.00 41 1007.1
20240415173531 66 300 4.0 17.0 0.00 0.04 0.00 42 1007.1
20240415173039 65 250 4.0 9.0 0.00 0.04 0.00 45 1007.1
20240415172529 65 82 1.0 10.0 0.00 0.04 0.00 43 1007.2
20240415172028 65 325 4.0 10.0 0.00 0.04 0.00 44 1007.5
20240415171527 66 299 6.0 13.0 0.00 0.04 0.00 43 1007.5
20240415171026 66 146 4.0 13.0 0.00 0.04 0.00 43 1007.5
20240415170525 65 163 6.0 12.0 0.00 0.04 0.00 46 1007.5
20240415170037 64 232 3.0 12.0 0.00 0.04 0.00 47 1007.5
20240415165523 64 244 3.0 12.0 0.00 0.04 0.00 46 1007.5
20240415165023 64 226 6.0 13.0 0.00 0.04 0.00 46 1007.5
20240415164522 65 274 5.0 13.0 0.00 0.04 0.00 46 1007.4
20240415164021 65 267 4.0 11.0 0.00 0.04 0.00 47 1007.5
20240415163522 64 265 5.0 16.0 0.00 0.04 0.00 49 1007.4
20240415163021 65 314 7.0 16.0 0.00 0.04 0.00 46 1007.3
20240415162518 65 299 2.0 13.0 0.00 0.04 0.00 49 1007.3
20240415162018 64 183 4.0 16.0 0.00 0.04 0.00 47 1007.1
20240415161517 64 205 7.0 16.0 0.00 0.04 0.00 47 1007.4
20240415161016 64 299 9.0 15.0 0.00 0.04 0.00 48 1007.5
20240415160516 64 148 3.0 15.0 0.00 0.04 0.00 49 1007.5
20240415160015 64 232 7.0 15.0 0.00 0.04 0.00 49 1007.5
20240415155515 64 355 5.0 15.0 0.00 0.04 0.00 49 1007.5
20240415155012 63 240 6.0 14.0 0.00 0.04 0.00 52 1007.4
20240415154514 63 309 7.0 12.0 0.00 0.04 0.00 52 1007.5
20240415154013 63 326 5.0 11.0 0.00 0.04 0.00 52 1007.5
20240415153510 63 261 4.0 14.0 0.00 0.04 0.00 54 1007.6
20240415153011 63 317 5.0 14.0 0.00 0.04 0.00 55 1007.7
20240415152509 63 219 3.0 9.0 0.00 0.04 0.00 56 1007.7
20240415152007 63 238 2.0 9.0 0.00 0.04 0.00 60 1007.8
20240415151506 62 225 3.0 7.0 0.00 0.04 0.00 62 1007.8
20240415151005 62 161 2.0 5.0 0.00 0.04 0.00 64 1007.9
20240415150503 61 139 1.0 4.0 0.00 0.04 0.00 64 1007.9
20240415150002 61 196 0.0 5.0 0.00 0.04 0.00 65 1008.0
20240415145501 60 292 2.0 8.0 0.00 0.04 0.00 68 1008.1
20240415145100 60 298 2.0 9.0 0.00 0.04 0.00 66 1008.1
20240415144559 59 250 3.0 9.0 0.00 0.04 0.00 66 1008.2
20240415144057 59 259 2.0 7.0 0.00 0.04 0.00 70 1008.3
20240415143556 58 313 2.0 7.0 0.00 0.04 0.00 71 1008.3
20240415143054 58 276 2.0 6.0 0.00 0.04 0.00 75 1008.2
20240415142553 57 213 2.0 5.0 0.00 0.04 0.00 75 1008.2
20240415142053 56 171 2.0 8.0 0.00 0.04 0.00 75 1008.1
20240415141554 56 300 4.0 8.0 0.00 0.04 0.00 77 1008.2
20240415141049 55 265 1.0 5.0 0.00 0.04 0.00 79 1008.1
20240415140552 54 329 1.0 4.0 0.00 0.04 0.00 81 1008.2
20240415140047 53 342 2.0 5.0 0.00 0.04 0.00 83 1008.1
20240415135545 53 259 2.0 5.0 0.00 0.04 0.00 85 1008.2
20240415135043 52 321 1.0 4.0 0.00 0.04 0.00 88 1008.3
20240415134542 51 179 0.0 3.0 0.00 0.04 0.00 89 1008.3
20240415134039 50 180 1.0 6.0 0.00 0.04 0.00 90 1008.2
20240415133538 50 312 2.0 6.0 0.00 0.04 0.00 91 1008.2
20240415133041 49 257 2.0 5.0 0.00 0.04 0.00 92 1008.2
20240415132535 48 222 1.0 5.0 0.00 0.04 0.00 92 1008.2
20240415132034 48 298 1.0 3.0 0.00 0.04 0.00 93 1008.3
20240415131536 48 298 1.0 3.0 0.00 0.04 0.00 93 1008.2
20240415131031 48 298 1.0 3.0 0.00 0.04 0.00 93 1008.2
20240415130530 47 261 1.0 2.0 0.00 0.04 0.00 94 1008.3
20240415130029 47 262 0.0 1.0 0.00 0.04 0.00 95 1008.2
20240415125529 46 261 0.0 3.0 0.00 0.04 0.00 95 1008.2
20240415125032 46 262 0.0 3.0 0.00 0.04 0.00 95 1008.3
20240415124528 46 262 1.0 2.0 0.00 0.04 0.00 95 1008.5
20240415124027 45 262 0.0 2.0 0.00 0.04 0.00 95 1008.5
20240415123526 44 262 1.0 2.0 0.00 0.04 0.00 96 1008.3
20240415123024 44 262 0.0 1.0 0.00 0.04 0.00 95 1008.3
20240415122524 44 262 0.0 1.0 0.00 0.04 0.00 96 1008.3
20240415122023 44 262 0.0 1.0 0.00 0.04 0.00 96 1008.2
20240415121524 43 262 0.0 1.0 0.00 0.04 0.00 95 1008.1
20240415121022 43 262 0.0 2.0 0.00 0.04 0.00 95 1008.1
20240415120521 43 262 0.0 2.0 0.00 0.04 0.00 95 1007.9
20240415120032 43 262 0.0 2.0 0.00 0.04 0.00 96 1008.0
20240415115521 43 261 0.0 2.0 0.00 0.04 0.00 96 1007.9
20240415115023 42 261 0.0 2.0 0.00 0.04 0.00 95 1007.9
20240415114520 42 262 0.0 1.0 0.00 0.04 0.00 96 1007.9
20240415114020 42 262 0.0 1.0 0.00 0.04 0.00 96 1007.9
20240415113523 41 261 0.0 2.0 0.00 0.04 0.00 96 1007.9
20240415113028 40 261 0.0 2.0 0.00 0.04 0.00 95 1008.0
20240415112517 39 262 0.0 1.0 0.00 0.04 0.00 95 1007.8